Location: Borgo
(42.3939°N, 9.2791°E)
Time: 17:23:31
(UTC+00:00)

Cosmos 1346 Rocket - Pass Details

Date: 24 January 2021
Orbit: 531 x 546 km, 81.2° (Epoch: 02 March)

Event Time Altitude Azimuth Distance (km) Brightness Sun altitude
Rises 18:34:49 0° 191° (S) 2,660 6.5 -23.5°
Reaches altitude 10° 18:36:57 10° 192° (SSW) 1,776 5.6 -23.9°
Enters shadow 18:39:39 43° 199° (SSW) 758 3.6 -24.4°
